SCP
0 0 0 0 0 0 0 0 0 0 0 0 0 0 0 0 0 0 0 0 0 0 0 0 0 0 0 0 0 0 0 0 0 0 0 0 0 0 0 0 0 0 0 0 0 0 0 0 0
0 0 0 0 0 0 0 0 0 0 0 0 0 0 0 0 0 0 0 0 0 0 0 0 0 0 0 0 0 0 0 0 0 0 0 0 0 0 0 0 0 0 0 0 0 0 0 0 0
0 0 0 0 0 0 0 0 0 0 0 0 0 0 0 0 0 0 0 0 0 0 0 0 0 0 0 0 0 0 0 0 0 0 0 0 0 0 0 0 0 0 0 0 0 0 0 0 0
0 0 0 0 0 0 0 0 0 0 0 0 0 0 0 0 0 0 0 0 0 0 0 0 0 0 0 0 0 0 0 0 0 0 0 0 0 0 0 0 0 0 0 0 0 0 0 0 0
0 0 0 0 0 0 0 0 0 0 0 0 0 0 0 0 0 0 0 0 0 0 0 0 0 0 0 0 0 0 0 0 0 0 0 0 0 0 0 0 0 0 0 0 0 0 0 0 0
0 0 0 0 0 0 0 0 0 0 0 0 0 0 0 0 0 0 0 0 0 0 0 0 0 0 0 0 0 0 0 0 0 0 0 0 0 0 0 0 0 0 0 0 0 0 0 0 0
0 0 0 0 0 0 0 0 0 0 0 0 0 0 0 0 0 0 0 0 0 0 0 0 0 0 0 0 0 0 0 0 0 0 0 0 0 0 0 0 0 0 0 0 0 0 0 0 0
0 0 0 0 0 0 0 0 0 0 0 0 0 0 0 0 0 0 0 0 0 0 0 0 0 0 0 0 0 0 0 0 0 0 0 0 0 0 0 0 0 0 0 0 0 0 0 0 0
0 0 0 0 0 0 0 0 0 0 0 0 0 0 0 0 0 0 0 0 0 0 0 0 0 0 0 0 0 0 0 0 0 0 0 0 0 0 0 0 0 0 0 0 0 0 0 0 0
0 0 0 0 0 0 0 0 0 0 0 0 0 0 0 0 0 0 0 0 0 0 0 0 0 0 0 0 0 0 0 0 0 0 0 0 0 0 0 0 0 0 0 0 0 0 0 0 0
0 0 0 0 0 0 0 0 0 0 0 0 0 0 0 0 0 0 0 0 0 0 0 0 0 0 0 0 0 0 0 0 0 0 0 0 0 0 0 0 0 0 0 0 0 0 0 0 0
0 0 0 0 0 0 -0 0 0 0 0 0 0 0 0 0 0 0 0 0 0 0 0 0 0 0 0 0 0 0 0 0 0 0 0 0 0 0 0 0 0 0 0 0 0 0 0 0 0
0 0 0 0 0 0 -0 -0 -0 0 0 0 0 0 0 0 0 0 0 0 0 0 0 0 0 0 0 0 0 0 0 0 0 0 0 0 0 0 0 0 0 0 0 0 0 0 0 0 0
0 0 0 0 0 0 -0 -0 0 0 0 0 0 0 0 0 0 0 0 0 0 0 0 0 0 0 0 0 0 0 0 0 0 0 0 0 0 0 0 0 0 0 0 0 0 0 0 0 0
0 0 0 0 0 0 0 0 0 0 0 0 0 0 0 0 0 0 0 0 0 0 0 0 0 0 0 0 0 0 0 0 0 0 0 0 0 0 0 0 0 0 0 0 0 0 0 0 0
0 0 0 0 0 0 0 0 0 0 0 0 0 0 0 0 0 0 0 0 0 0 0 0 0 0 0 0 0 0 0 0 0 0 0 0 0 0 0 0 0 0 0 0 0 0 0 0 0
0 0 0 0 0 0 0 0 0 0 0 0 0 0 0 0 0 0 0 0 0 0 0 0 0 0 0 0 0 0 0 0 0 0 0 0 0 0 0 0 0 0 0 0 0 0 0 0 0
0 0 0 0 0 0 0 0 0 0 0 0 0 0 0 0 0 0 0 0 0 0 0 0 0 0 0 0 0 0 0 0 0 0 0 0 0 0 0 0 0 0 0 0 0 0 0 0 0
0 0 0 0 0 0 0 0 0 0 0 0 0 0 0 0 0 0 0 0 0 0 0 0 0 0 0 0 0 0 0 0 0 0 0 0 0 0 0 0 0 0 0 0 0 0 0 0 0
0 0 0 0 0 0 0 0 0 0 0 0 0 0 0 0 0 0 0 0 0 0 0 0 0 0 0 0 0 0 0 0 0 0 0 0 0 0 0 0 0 0 0 0 0 0 0 0 0
0 0 0 0 0 0 0 0 0 0 0 0 0 0 0 0 0 0 0 0 0 0 0 0 0 0 0 0 0 0 0 0 0 0 0 0 0 0 0 0 0 0 0 0 0 0 0 0 0
0 0 0 0 0 0 0 0 0 0 0 0 0 0 0 0 0 0 0 0 0 0 0 0 0 0 0 0 0 0 0 0 0 0 0 0 0 0 0 0 0 0 0 0 0 0 0 0 0
0 0 0 0 0 0 0 0 0 0 0 0 0 0 0 0 0 0 0 0 0 0 0 0 0 0 0 0 0 0 0 0 0 0 0 0 0 0 0 0 0 0 0 0 0 0 0 0 0
0 0 0 0 0 0 0 0 0 0 0 0 0 0 0 0 0 0 0 0 0 0 0 0 0 0 0 0 0 0 0 0 0 0 0 0 0 0 0 0 0 0 0 0 0 0 0 0 0
0 0 0 0 0 0 0 0 0 0 0 0 0 0 0 0 0 0 0 0 0 0 0 0 0 0 0 0 0 0 0 0 0 0 0 0 0 0 0 0 0 0 0 0 0 0 0 0 0
0 0 0 0 0 0 0 0 0 0 0 0 0 0 0 0 0 0 0 0 0 0 0 0 0 0 0 0 0 0 0 0 0 0 0 0 0 0 0 0 0 0 0 0 0 0 0 0 0
0 0 0 0 0 0 0 0 0 0 0 0 0 0 0 0 0 0 0 0 0 0 0 0 0 0 0 0 0 0 0 0 0 0 0 0 0 0 0 0 0 0 0 0 0 0 0 0 0
0 0 0 0 0 0 0 0 0 0 0 0 0 0 0 0 0 0 0 0 0 0 0 0 0 0 0 0 0 0 0 0 0 0 0 0 0 0 0 0 0 0 0 0 0 0 0 0 0
0 0 0 0 0 0 0 0 0 0 0 0 0 0 0 0 0 0 0 0 0 0 0 0 0 0 0 0 0 0 0 0 0 0 0 0 0 0 0 0 0 0 0 0 0 0 0 0 0
0 0 0 0 0 0 0 0 0 0 0 0 0 0 0 0 0 0 0 0 0 0 0 0 0 0 0 0 0 0 0 0 0 0 0 0 0 0 0 0 0 0 0 0 0 0 0 0 0
Wind_Speed
11 6 1 4 5 3 2 3 1 0 1 1 3 6 7 5 3 3 1 3 5 6 5 6 9 11 11 11 11 11 11 11 10 10 10 11 11 11 11 11 11 11 11 11 12 12 12 12 11
5 3 4 4 4 1 3 3 2 1 2 2 4 5 6 4 3 4 2 3 6 6 5 5 9 10 11 11 11 11 11 11 10 10 10 10 10 11 11 11 11 11 11 11 12 12 11 11 11
5 1 3 4 3 5 3 2 2 0 1 2 3 5 4 3 2 2 1 5 6 6 5 5 10 10 11 11 10 10 10 10 10 10 10 10 10 10 10 10 10 10 11 11 11 11 12 11 11
2 3 4 3 3 3 3 2 2 2 2 3 4 5 3 2 1 2 3 6 7 6 5 5 9 10 10 10 10 10 10 10 10 10 10 10 10 10 10 10 10 10 11 11 11 11 11 11 11
3 3 2 1 3 2 1 1 2 2 2 2 4 5 2 3 3 4 5 6 7 5 4 5 8 9 9 9 10 9 9 9 9 9 9 10 10 10 10 10 10 10 10 10 10 10 10 10 10
3 3 3 3 3 2 2 1 2 2 2 2 4 5 2 1 3 4 4 5 6 6 5 4 7 8 8 8 9 9 8 9 8 9 9 9 9 9 9 10 10 9 9 9 9 9 9 9 10
3 3 3 3 3 2 2 1 2 2 2 1 3 5 2 1 1 3 4 5 5 5 5 4 3 4 6 7 7 8 7 8 8 8 8 8 8 8 9 9 9 9 9 9 8 8 8 8 9
3 3 2 2 3 3 2 0 1 2 2 1 3 6 4 4 3 4 5 5 4 4 4 4 3 3 3 4 6 7 7 7 7 7 8 8 7 7 8 7 8 8 8 8 8 8 8 8 8
3 3 3 3 4 3 1 1 2 2 3 2 2 1 3 7 6 6 4 3 3 3 2 3 3 3 2 3 4 5 5 5 6 6 7 6 3 3 4 6 7 7 7 7 7 7 7 7 7
3 3 4 2 2 2 0 1 1 2 2 1 2 3 5 7 7 7 5 5 4 4 3 3 3 3 2 2 2 2 2 2 2 2 3 3 3 3 4 6 6 6 6 6 6 7 7 5 3
3 4 3 1 1 1 1 1 1 4 2 4 4 5 6 6 6 7 6 6 5 5 4 3 4 3 3 2 2 1 1 1 2 2 2 2 3 2 3 2 3 3 4 3 3 4 3 2 2
3 1 2 1 1 0 1 1 1 3 5 4 5 7 7 8 8 8 8 6 5 5 5 4 4 4 4 3 2 2 2 1 1 2 2 2 2 2 2 1 1 1 1 1 1 1 2 2 2
2 1 1 1 0 0 0 1 2 4 4 1 3 5 7 8 7 6 6 5 5 5 5 5 4 5 4 4 3 3 2 2 2 2 2 3 2 2 2 1 1 1 1 1 1 1 1 2 2
2 1 1 1 2 1 1 3 2 7 3 2 4 5 6 7 7 6 6 6 6 6 6 5 5 5 5 4 3 3 3 2 2 2 2 3 3 3 2 2 1 1 1 1 1 1 1 1 1
1 1 2 2 2 2 0 4 6 7 3 4 5 5 5 6 6 7 8 8 8 7 6 6 6 5 5 5 4 3 3 3 3 3 3 3 3 3 3 2 1 1 1 2 2 2 2 2 2
2 1 2 3 2 1 2 8 6 3 4 5 5 4 5 6 6 6 7 7 7 6 6 6 5 5 5 4 4 3 3 3 3 3 3 3 3 3 3 2 1 1 1 2 2 2 2 2 2
2 1 3 4 1 1 3 7 6 2 4 5 5 5 5 5 5 5 6 7 7 7 7 7 6 6 6 4 3 3 3 3 3 2 3 3 4 4 3 2 2 2 2 2 2 2 2 2 1
4 3 3 4 2 1 4 8 9 4 4 6 6 6 5 6 7 5 5 5 5 6 6 7 6 6 5 3 3 2 2 2 2 2 3 3 3 4 4 3 3 3 2 2 2 2 2 2 1
3 3 3 4 2 1 6 10 11 7 5 6 7 7 7 7 6 3 4 4 4 5 6 7 7 6 5 4 4 3 3 2 2 2 3 3 3 4 4 3 3 3 3 3 3 2 2 2 1
2 3 4 3 2 2 5 10 10 7 6 7 8 8 8 6 4 3 3 4 5 6 6 6 7 6 6 4 4 3 3 2 2 2 2 3 3 4 4 4 3 3 3 3 3 3 2 1 1
4 5 5 3 4 2 3 8 6 5 4 5 6 7 6 7 6 5 4 5 5 6 7 6 7 6 6 5 3 2 2 1 2 2 2 3 3 3 4 4 4 4 4 4 4 4 4 2 1
5 3 4 3 1 4 0 6 8 5 5 5 7 6 7 6 6 5 5 5 6 7 6 6 6 6 5 5 5 6 5 4 4 3 3 3 3 4 4 4 4 4 4 4 4 4 2 3 2
4 1 2 2 2 3 2 4 10 2 6 7 7 7 7 6 6 6 6 7 6 5 5 5 5 5 5 6 6 6 5 3 2 2 3 3 2 3 3 4 4 4 3 4 4 3 3 2 3
2 2 2 3 2 4 5 5 9 5 7 6 5 5 5 5 5 5 4 3 4 4 4 4 5 5 5 6 6 7 7 5 4 4 4 3 2 2 3 3 4 4 3 4 4 4 4 3 3
2 4 2 4 2 7 3 4 11 8 6 6 6 6 4 3 3 3 3 3 4 5 5 5 6 5 5 6 6 7 7 7 7 6 5 4 3 3 4 4 4 3 3 4 4 4 3 3 3
3 5 6 5 5 5 2 7 9 7 4 4 4 3 2 1 2 3 3 4 4 4 4 5 6 5 5 6 6 5 6 5 5 5 5 5 4 4 4 4 4 4 4 3 4 3 3 3 3
4 4 3 3 0 3 6 7 9 4 3 2 2 1 2 2 1 2 2 3 3 4 4 5 5 4 5 5 5 5 5 5 5 5 5 4 3 3 4 4 4 4 4 4 4 3 3 3 3
2 4 4 4 3 4 6 5 6 5 4 2 2 2 3 1 1 1 2 2 2 2 3 3 4 4 4 4 4 4 5 5 5 4 5 4 4 4 4 5 5 4 4 4 4 3 3 3 3
4 3 4 3 4 5 4 8 6 6 4 3 3 3 3 2 2 2 2 1 1 1 2 2 3 3 3 4 3 3 3 4 4 4 5 5 4 5 5 5 5 5 5 5 4 4 4 4 3
4 5 6 5 5 5 4 9 3 4 3 3 3 2 1 2 2 1 1 1 1 1 2 3 3 3 3 3 3 3 3 3 4 4 4 4 5 5 5 5 5 5 5 5 6 6 5 5 5
Wind_Direction
332 329 34 57 60 59 236 252 215 102 54 22 58 89 98 91 110 138 127 127 124 139 147 142 130 127 122 119 118 113 110 107 104 100 97 94 91 91 90 87 83 81 78 76 76 75 71 69 68
327 335 52 65 100 158 253 259 211 235 173 128 62 73 80 75 60 105 118 132 128 132 130 134 129 128 125 121 119 117 113 110 106 103 102 98 94 94 93 89 86 85 82 79 77 75 72 66 64
323 5 82 90 142 186 216 234 190 164 51 89 73 53 80 107 107 137 160 133 117 119 121 133 128 128 128 124 119 118 116 113 109 106 104 102 99 98 95 91 87 85 84 81 79 75 71 65 63
24 43 59 98 196 215 209 223 174 143 47 51 102 78 60 37 152 160 130 125 116 115 119 133 130 128 127 126 121 117 117 114 111 109 106 104 102 99 97 94 91 88 85 82 79 75 71 67 66
59 82 91 184 218 232 225 200 156 127 121 66 101 109 86 1 64 105 118 120 121 116 112 124 127 128 127 127 125 121 118 116 114 111 107 104 101 100 100 99 94 92 89 86 83 79 73 69 66
62 78 129 209 225 237 256 234 134 96 103 78 103 116 127 62 88 106 111 112 116 117 108 106 118 121 125 123 124 122 117 119 116 113 108 104 101 101 101 99 97 92 90 88 85 81 78 72 67
115 118 173 194 207 243 250 248 142 129 125 174 134 123 145 184 149 115 108 107 105 107 104 95 99 113 118 118 118 117 116 116 115 114 110 102 98 98 100 98 97 93 90 87 83 79 76 74 70
129 117 178 194 195 236 256 35 44 134 176 111 115 144 187 199 160 111 104 106 105 105 110 105 93 90 99 111 115 112 111 111 112 111 106 101 99 98 99 97 97 94 89 86 83 77 74 72 69
97 100 201 202 193 219 229 81 360 36 99 64 51 143 167 141 129 112 108 104 116 122 124 120 116 106 104 114 116 110 110 109 108 108 106 98 90 90 91 90 93 93 90 87 83 77 73 68 63
103 166 215 213 191 185 216 180 181 85 77 82 42 43 107 130 140 144 154 162 168 171 166 152 145 139 131 126 113 103 95 100 102 101 109 103 98 92 91 88 87 88 87 87 83 78 70 60 51
144 185 197 249 284 201 217 265 204 148 212 211 194 174 152 154 162 170 179 182 187 182 175 175 166 156 150 139 133 123 111 106 107 107 111 107 99 96 81 82 76 71 67 61 66 62 54 52 52
141 189 179 220 279 291 237 225 255 205 223 213 183 165 164 176 186 191 190 192 186 176 183 182 176 166 162 151 148 145 142 137 128 124 120 117 116 113 112 100 90 79 74 80 69 70 65 61 54
177 198 154 185 161 87 95 228 234 252 245 206 151 162 182 194 202 205 202 194 184 185 191 189 180 175 167 157 159 156 161 156 149 139 145 134 132 140 133 125 114 108 101 105 97 92 86 72 59
183 171 241 246 251 260 207 271 248 258 228 172 172 198 207 208 208 205 204 202 196 197 197 191 186 182 172 167 165 165 168 162 155 155 165 154 147 149 148 142 140 133 129 121 116 110 98 82 75
116 77 320 270 220 230 157 293 238 247 199 205 219 220 223 227 217 212 209 204 202 199 193 189 188 182 178 174 172 166 171 165 165 168 164 154 147 151 153 148 153 156 136 114 97 85 79 76 69
67 55 293 281 203 226 156 262 262 230 188 224 238 239 239 245 231 225 216 206 200 192 188 189 187 184 184 180 174 169 173 173 176 171 164 157 151 153 148 142 155 150 120 106 111 103 87 72 64
47 234 249 283 233 183 189 252 269 223 195 227 239 241 239 252 253 235 218 207 197 192 186 185 187 186 186 181 171 168 171 175 176 170 167 167 160 156 149 151 157 141 120 111 124 96 99 94 73
207 219 241 246 262 169 227 254 271 265 224 236 244 246 243 247 249 237 217 204 195 188 185 185 184 185 179 171 160 157 158 171 171 174 175 168 166 159 152 153 153 144 130 120 114 105 81 93 104
170 192 242 250 247 240 245 260 270 265 243 245 249 247 245 249 252 238 214 198 184 180 182 183 183 183 172 172 178 180 188 186 187 183 175 169 167 163 157 154 155 151 150 148 137 117 98 76 72
207 235 263 288 301 250 269 272 270 261 242 231 233 239 240 250 255 235 209 196 190 187 186 184 185 184 182 185 183 176 169 180 182 176 176 176 172 169 163 158 163 160 149 140 139 125 120 104 84
228 220 229 253 322 309 310 294 270 270 258 247 238 237 237 230 230 223 210 204 197 193 191 190 189 186 185 176 155 132 116 115 155 183 192 192 180 174 167 168 166 166 162 165 167 159 146 147 175
242 226 208 221 284 286 230 288 280 258 280 261 252 243 239 234 223 214 207 202 201 202 196 192 188 186 182 172 171 171 176 186 195 191 190 186 183 182 179 176 175 171 168 167 175 171 161 145 164
215 192 197 202 192 284 244 237 279 282 268 266 257 247 242 234 219 212 209 204 200 194 193 191 183 186 182 179 184 187 189 189 172 161 170 179 185 187 189 182 178 176 176 176 174 172 172 168 165
157 63 50 57 83 265 224 201 273 240 234 254 259 257 245 234 223 218 211 193 193 187 187 183 180 188 187 185 189 193 189 177 165 173 182 188 188 187 190 185 186 185 183 182 182 182 181 183 167
106 100 29 351 336 250 220 209 252 250 239 235 251 261 254 229 216 209 203 198 197 192 190 185 182 190 190 188 197 199 194 184 185 188 190 189 192 201 203 189 187 190 194 187 179 179 188 187 180
195 162 170 204 231 275 255 233 254 261 257 252 255 262 274 236 213 207 202 196 195 195 190 185 185 190 190 192 202 200 195 191 195 192 191 196 202 205 193 190 188 185 187 187 179 180 191 188 194
166 205 188 141 90 285 265 272 292 275 289 285 274 263 257 241 229 222 202 192 190 189 190 187 186 190 193 196 199 200 198 193 195 192 192 197 199 193 185 188 188 185 185 190 180 186 191 187 197
183 158 128 155 182 249 276 260 247 264 271 290 293 266 261 258 243 209 199 195 194 193 187 180 186 192 192 193 197 200 201 199 195 187 192 194 194 187 182 187 191 191 189 190 188 193 192 187 205
174 184 177 169 182 186 252 263 225 220 221 224 246 246 239 239 234 231 227 211 184 161 166 182 192 190 192 193 194 194 197 195 191 194 200 198 194 190 188 191 193 195 196 191 194 203 194 198 210
206 200 174 181 226 213 227 263 265 215 216 206 233 249 241 235 226 220 217 201 169 175 186 194 196 195 201 192 185 193 188 183 187 199 203 195 196 196 193 190 191 197 199 195 198 206 203 206 214